Location: Marstown
(39.5056°N, 77.0820°W)
Time: 14:23:14
(UTC-04:00)

Envisat - Visible Passes

Search period start: 24 April 2018 00:00
Search period end: 04 May 2018 00:00
Orbit: 764 x 766 km, 98.2° (Epoch: 24 April)

Date Brightness Start Highest point End Pass type
(mag) Time Alt. Az. Time Alt. Az. Time Alt. Az.
24 Apr 5.3 21:35:12 10° SW 21:39:04 22° W 21:42:59 10° NW visible
25 Apr 3.9 20:57:14 10° S 21:02:08 49° W 21:07:05 10° NNW visible
26 Apr 3.0 20:20:21 10° SSE 20:25:24 73° ENE 20:30:29 10° N visible
26 Apr 5.8 22:03:02 10° WSW 22:04:56 12° W 22:06:49 10° WNW visible
27 Apr 4.9 21:23:33 10° SSW 21:27:51 28° W 21:32:11 10° NW visible
28 Apr 3.5 20:45:57 10° S 20:50:58 63° W 20:56:02 10° NNW visible
29 Apr 5.6 21:50:40 10° SW 21:53:39 16° W 21:56:39 10° NW visible
30 Apr 4.5 21:12:01 10° SSW 21:16:38 35° W 21:21:17 10° NNW visible
01 May 3.2 20:34:44 10° S 20:39:49 81° WSW 20:44:55 10° NNW visible
02 May 5.4 21:38:44 10° SW 21:42:24 20° W 21:46:05 10° NW visible
03 May 4.1 21:00:36 10° S 21:05:26 45° W 21:10:18 10° NNW visible
